Regional Weather Roundup
Issued by NWS

Home | Current Version | Previous Version | Graphics & Text | Print | Product List | Glossary On
Versions: 1 2 3 4 5 6 7 8 9 10 11 12 13 14 15 16 17 18 19 20 21 22 23 24 25 26 27 28 29 30 31 32 33 34 35 36 37 38 39 40 41 42 43 44 45 46 47 48 49 50
000
ASUS43 KLSX 291959
RWRMO

WEATHER SUMMARY FOR MISSOURI
NATIONAL WEATHER SERVICE SPRINGFIELD MO
300 PM CDT FRI MAY 29 2015

NOTE: "FAIR" INDICATES FEW OR NO CLOUDS BELOW 12,000 FEET WITH NO
       SIGNIFICANT WEATHER AND/OR OBSTRUCTIONS TO VISIBILITY.
       CURRENT SKY AND/OR WEATHER CONDITIONS ARE NOT AVAILABLE FOR
       CHILLICOTHE AND FARMINGTON.

MOZ001>031-035>038-043-044-053-054-292100-
...NORTHERN AND WESTERN MISSOURI...

CITY           SKY/WX    TMP DP  RH WIND       PRES   REMARKS
KANSAS CTY INT LGT RAIN  68  66  93 S13       29.98F
KANSAS C DTWN  LGT RAIN  70  65  84 S6        29.97F
LEE`S SUMMIT   LGT RAIN  69  66  90 SW5       29.99F
ST JOSEPH      CLOUDY    69  65  86 S8        29.97F
CHILLICOTHE      N/A     71  66  84 SW5       29.99F
KIRKSVILLE     CLOUDY    74  66  76 SW8       30.00F

$$
MOZ066>068-077>081-088>096-101>105-292100-
...SOUTHWEST MISSOURI...

CITY           SKY/WX    TMP DP  RH WIND       PRES   REMARKS
SPRINGFIELD    PTSUNNY   77  66  68 E8        29.99F
JOPLIN         CLOUDY    72  66  81 NE7       29.98F

$$
MOZ032>034-039>042-045>050-055>058-069>072-292100-
...CENTRAL MISSOURI...

CITY           SKY/WX    TMP DP  RH WIND       PRES   REMARKS
COLUMBIA       CLOUDY    71  65  81 W5        30.01F
JEFFERSON CITY CLOUDY    75  63  66 VRB3      30.00F
ROLLA          PTSUNNY   73  66  78 CALM      30.02F
SEDALIA        CLOUDY    74  66  76 W5        30.01F
OSAGE BEACH    PTSUNNY   73  63  68 E3        30.01F

$$
MOZ051-052-059>065-292100-
...EAST CENTRAL MISSOURI...

CITY           SKY/WX    TMP DP  RH WIND       PRES   REMARKS
ST LOUIS INTL  PTSUNNY   83  68  60 SW8       30.00F
SPIRIT OF STL  PTSUNNY   83  68  60 W12       29.98F
ST CHARLES     PTSUNNY   85  67  54 W12       29.97F

$$
MOZ072>076-082>087-097>100-106>115-292100-
...SOUTH CENTRAL AND SOUTHEAST MISSOURI...

CITY           SKY/WX    TMP DP  RH WIND       PRES   REMARKS
CAPE GIRARDEAU SUNNY     83  70  64 S13       30.02F
FARMINGTON     MOSUNNY   81  70  69 S7        30.05F
POPLAR BLUFF   MOSUNNY   85  67  54 S8        30.00F
WEST PLAINS    PTSUNNY   82  67  60 SE6       30.01F

$$


USA.gov is the U.S. government's official web portal to all federal, state and local government web resources and services.